Starlink 36207

operational
NORAD ID: 67014 Int'l Des: 2025-293 Owner: SPXS Country: US Constellation: starlink
LEOCIRCULAR

Über Starlink 36207

Beschreibung wird geladen...

Live-Position

3D-Globus wird geladen...

Nächste Überflüge

Höhenverlauf

Altitude vs Time

uPlot chart will show altitude changes over time

Zweizeiliger Elementsatz

1 67014C 25293M 25346.10673611 -.00260880 00000+0 -36137-3 0 3468
2 67014 69.9973 325.9181 0004558 267.0894 216.4619 16.06025890 17
Epoch: 12. Dez. 2025 • Age: 54 hours

Aktueller Status

Höhe 269.4 km
Geschwindigkeit 7.75 km/s
Subsatellitenpunkt -27.10°S, 131.69°E
Startdatum 10. Dez. 2025
Alter 3 days
Typ internet

Technische Details

Klassifizierung Payload
Masse 575.00 kg
Trockenmasse 530.00 kg
Gesamtmasse 575.00 kg
Länge 0.30 m
Durchmesser 4.10 m
Spannweite 29.00 m
Form Box + pan
Hersteller SPXS
Bus-Typ Starlink V2MO
Phasenstatus In Orbit
Besitzer/Staat SPXS/US

Große Konstellationen

Loading constellations...